Radiation Dose at Monitoring Post of Fukushima Daini Nuclear Power Station
Date,Time,MP-1(microSv/h),MP-2(microSv/h),MP-3(microSv/h),MP-4(microSv/h),MP-5(microSv/h),MP-6(microSv/h),MP-7(microSv/h),Wind Direction,Wind Velocity(m/s),Rain
2023/10/18,00:00,0.146,0.132,0.214,0.202,0.208,0.118,0.075,northwest,2.1,No
2023/10/18,00:10,0.146,0.131,0.212,0.202,0.209,0.118,0.075,west-northwest,3.0,No
2023/10/18,00:20,0.146,0.131,0.212,0.201,0.208,0.119,0.075,west,2.2,No
2023/10/18,00:30,0.147,0.133,0.213,0.202,0.207,0.119,0.075,west-northwest,3.2,No
2023/10/18,00:40,0.147,0.131,0.213,0.202,0.208,0.118,0.075,north-northwest,1.2,No
2023/10/18,00:50,0.147,0.132,0.213,0.203,0.208,0.119,0.075,-,CALM,No
2023/10/18,01:00,0.146,0.132,0.212,0.203,0.208,0.120,0.075,-,CALM,No
2023/10/18,01:10,0.146,0.131,0.213,0.202,0.207,0.118,0.076,west-northwest,1.8,No
2023/10/18,01:20,0.147,0.132,0.212,0.202,0.209,0.118,0.076,west-northwest,1.2,No
2023/10/18,01:30,0.146,0.132,0.212,0.202,0.208,0.119,0.075,northwest,1.6,No
2023/10/18,01:40,0.145,0.132,0.212,0.202,0.207,0.119,0.075,west-northwest,1.6,No
2023/10/18,01:50,0.146,0.132,0.212,0.201,0.209,0.119,0.075,-,CALM,No
2023/10/18,02:00,0.146,0.131,0.213,0.201,0.207,0.119,0.076,-,CALM,No
2023/10/18,02:10,0.147,0.132,0.212,0.203,0.209,0.118,0.076,-,CALM,No
2023/10/18,02:20,0.147,0.132,0.213,0.203,0.208,0.118,0.076,-,CALM,No
2023/10/18,02:30,0.146,0.132,0.212,0.202,0.209,0.119,0.075,-,CALM,No
2023/10/18,02:40,0.148,0.131,0.213,0.202,0.210,0.118,0.075,-,CALM,No
2023/10/18,02:50,0.146,0.132,0.213,0.201,0.207,0.118,0.076,west-northwest,0.8,No
2023/10/18,03:00,0.145,0.131,0.214,0.202,0.209,0.118,0.075,north-northeast,0.8,No
2023/10/18,03:10,0.146,0.131,0.212,0.201,0.209,0.119,0.076,east-northeast,0.9,No
2023/10/18,03:20,0.146,0.132,0.213,0.202,0.208,0.119,0.075,northwest,0.6,No
2023/10/18,03:30,0.146,0.132,0.213,0.202,0.208,0.118,0.076,north-northwest,1.3,No
2023/10/18,03:40,0.146,0.132,0.213,0.202,0.208,0.118,0.076,north-northwest,1.2,No
2023/10/18,03:50,0.146,0.132,0.213,0.201,0.209,0.118,0.076,north,1.2,No
2023/10/18,04:00,0.147,0.131,0.213,0.202,0.208,0.118,0.076,north-northwest,1.7,No
2023/10/18,04:10,0.146,0.131,0.213,0.202,0.208,0.118,0.076,northwest,1.7,No
2023/10/18,04:20,0.145,0.131,0.213,0.203,0.209,0.118,0.076,northwest,1.3,No
2023/10/18,04:30,0.147,0.133,0.212,0.201,0.208,0.117,0.075,northwest,0.9,No
2023/10/18,04:40,0.146,0.132,0.213,0.203,0.208,0.119,0.076,west-northwest,1.0,No
2023/10/18,04:50,0.147,0.132,0.212,0.202,0.208,0.118,0.075,north-northwest,1.0,No
2023/10/18,05:00,0.146,0.132,0.211,0.201,0.207,0.119,0.076,northwest,1.4,No
2023/10/18,05:10,0.147,0.132,0.212,0.202,0.209,0.119,0.075,west-northwest,1.0,No
2023/10/18,05:20,0.145,0.131,0.213,0.203,0.208,0.118,0.076,west,1.4,No
2023/10/18,05:30,0.146,0.132,0.212,0.201,0.208,0.117,0.076,west-southwest,0.7,No
2023/10/18,05:40,0.146,0.131,0.213,0.202,0.210,0.118,0.076,-,CALM,No
2023/10/18,05:50,0.146,0.131,0.213,0.202,0.208,0.119,0.076,northwest,1.0,No
2023/10/18,06:00,0.146,0.132,0.213,0.201,0.208,0.118,0.076,northwest,0.8,No
2023/10/18,06:10,0.146,0.132,0.212,0.202,0.208,0.119,0.075,northwest,0.7,No
2023/10/18,06:20,0.146,0.131,0.213,0.202,0.208,0.117,0.075,north-northwest,0.6,No
2023/10/18,06:30,0.146,0.133,0.212,0.201,0.209,0.118,0.076,north-northeast,0.6,No
2023/10/18,06:40,0.145,0.132,0.213,0.202,0.208,0.120,0.076,-,CALM,No
2023/10/18,06:50,0.145,0.132,0.213,0.202,0.208,0.118,0.076,west-southwest,0.7,No
2023/10/18,07:00,0.146,0.132,0.212,0.201,0.209,0.119,0.075,west,0.8,No
2023/10/18,07:10,0.146,0.131,0.212,0.203,0.205,0.119,0.075,west-northwest,0.6,No
2023/10/18,07:20,0.146,0.131,0.212,0.201,0.207,0.117,0.075,west-northwest,1.0,No
2023/10/18,07:30,0.146,0.133,0.213,0.201,0.208,0.118,0.075,-,CALM,No
2023/10/18,07:40,0.146,0.131,0.212,0.200,0.209,0.118,0.075,-,CALM,No
2023/10/18,07:50,0.147,0.130,0.212,0.201,0.206,0.119,0.075,-,CALM,No
2023/10/18,08:00,0.146,0.131,0.213,0.199,0.209,0.119,0.076,west,0.7,No
2023/10/18,08:10,0.146,0.131,0.212,0.201,0.207,0.118,0.076,-,CALM,No
2023/10/18,08:20,0.146,0.132,0.212,0.199,0.208,0.119,0.074,east-northeast,1.0,No
2023/10/18,08:30,0.146,0.131,0.212,0.201,0.207,0.118,0.076,northeast,1.1,No
2023/10/18,08:40,0.146,0.132,0.211,0.199,0.209,0.118,0.075,northeast,1.0,No
2023/10/18,08:50,0.146,0.131,0.212,0.200,0.206,0.117,0.075,northeast,1.5,No
2023/10/18,09:00,0.146,0.131,0.212,0.201,0.208,0.119,0.075,northeast,1.3,No
2023/10/18,09:10,0.146,0.131,0.212,0.198,0.207,0.118,0.076,north-northeast,1.4,No
2023/10/18,09:20,0.144,0.132,0.211,0.202,0.206,0.118,0.075,north-northeast,1.6,No
2023/10/18,09:30,0.145,0.130,0.212,0.202,0.208,0.117,0.076,east-northeast,2.2,No
2023/10/18,09:40,0.146,0.132,0.211,0.200,0.207,0.118,0.076,northeast,2.1,No
2023/10/18,09:50,0.144,0.132,0.214,0.199,0.206,0.117,0.076,northeast,2.7,No
2023/10/18,10:00,0.145,0.131,0.211,0.199,0.207,0.118,0.076,east-northeast,2.9,No
2023/10/18,10:10,0.147,0.132,0.210,0.202,0.209,0.118,0.076,northeast,1.9,No
2023/10/18,10:20,0.146,0.131,0.212,0.201,0.207,0.117,0.075,northeast,2.4,No
2023/10/18,10:30,0.145,0.130,0.211,0.201,0.206,0.117,0.076,northeast,1.8,No
2023/10/18,10:40,0.144,0.132,0.211,0.199,0.205,0.118,0.076,east-northeast,2.4,No
2023/10/18,10:50,0.144,0.131,0.209,0.199,0.208,0.118,0.076,east-northeast,2.4,No
2023/10/18,11:00,0.144,0.131,0.211,0.200,0.209,0.117,0.075,east,2.0,No
2023/10/18,11:10,0.147,0.131,0.212,0.203,0.208,0.118,0.076,east-southeast,1.0,No
2023/10/18,11:20,0.146,0.133,0.212,0.202,0.206,0.119,0.076,east,1.9,No
2023/10/18,11:30,0.146,0.132,0.210,0.201,0.206,0.118,0.075,east,2.6,No
2023/10/18,11:40,0.145,0.131,0.211,0.200,0.206,0.118,0.075,east-southeast,2.3,No
2023/10/18,11:50,0.145,0.130,0.212,0.199,0.208,0.118,0.075,east-southeast,3.0,No
2023/10/18,12:00,0.144,0.131,0.213,0.201,0.210,0.118,0.076,east-southeast,1.8,No
2023/10/18,12:10,0.144,0.131,0.212,0.204,0.208,0.119,0.076,east-southeast,2.3,No
2023/10/18,12:20,0.144,0.132,0.210,0.202,0.206,0.118,0.075,southeast,2.1,No
2023/10/18,12:30,0.144,0.131,0.210,0.201,0.205,0.119,0.075,east-southeast,2.2,No
2023/10/18,12:40,0.144,0.131,0.212,0.200,0.206,0.118,0.075,east-southeast,2.3,No
2023/10/18,12:50,0.145,0.131,0.213,0.200,0.206,0.119,0.076,southeast,2.1,No
2023/10/18,13:00,0.144,0.130,0.212,0.200,0.206,0.118,0.076,east-southeast,2.1,No
2023/10/18,13:10,0.144,0.132,0.211,0.203,0.210,0.119,0.075,southeast,1.8,No
2023/10/18,13:20,0.145,0.132,0.211,0.202,0.209,0.119,0.075,southeast,2.5,No
2023/10/18,13:30,0.145,0.132,0.211,0.200,0.209,0.119,0.075,southeast,2.0,No
2023/10/18,13:40,0.145,0.131,0.213,0.200,0.207,0.119,0.076,southeast,1.6,No
2023/10/18,13:50,0.144,0.131,0.214,0.200,0.206,0.118,0.075,southeast,1.7,No
2023/10/18,14:00,0.144,0.131,0.212,0.202,0.206,0.119,0.075,south-southeast,1.8,No
2023/10/18,14:10,0.145,0.130,0.211,0.202,0.205,0.119,0.075,south-southeast,1.5,No
2023/10/18,14:20,0.148,0.133,0.214,0.201,0.209,0.120,0.077,south-southeast,0.9,No
2023/10/18,14:30,0.147,0.132,0.214,0.200,0.209,0.118,0.074,south-southeast,1.1,No
2023/10/18,14:40,0.146,0.132,0.213,0.203,0.207,0.118,0.076,southeast,1.7,No
2023/10/18,14:50,0.145,0.132,0.215,0.201,0.209,0.118,0.076,south-southeast,2.6,No
2023/10/18,15:00,0.145,0.133,0.212,0.203,0.209,0.119,0.075,southeast,2.2,No
2023/10/18,15:10,0.147,0.131,0.213,0.203,0.209,0.119,0.076,southeast,2.9,No
2023/10/18,15:20,0.146,0.132,0.213,0.202,0.209,0.119,0.076,southeast,2.7,No
2023/10/18,15:30,0.146,0.132,0.213,0.204,0.209,0.118,0.075,south-southeast,3.3,No
2023/10/18,15:40,0.148,0.132,0.213,0.202,0.207,0.118,0.075,south-southeast,3.9,No
2023/10/18,15:50,0.146,0.133,0.213,0.203,0.209,0.118,0.075,south-southeast,4.7,No
2023/10/18,16:00,0.147,0.132,0.213,0.203,0.208,0.118,0.076,south-southeast,4.3,No
2023/10/18,16:10,0.146,0.133,0.213,0.202,0.209,0.119,0.075,south-southeast,5.1,No
2023/10/18,16:20,0.147,0.132,0.214,0.204,0.209,0.119,0.076,south,5.4,No
2023/10/18,16:30,0.146,0.133,0.213,0.202,0.209,0.119,0.075,south-southeast,5.1,No
2023/10/18,16:40,0.145,0.132,0.214,0.204,0.208,0.119,0.075,south-southeast,4.1,No
2023/10/18,16:50,0.147,0.132,0.213,0.202,0.208,0.119,0.076,south,5.8,No
2023/10/18,17:00,0.146,0.132,0.214,0.203,0.209,0.118,0.077,south,5.6,No
2023/10/18,17:10,0.148,0.132,0.213,0.202,0.208,0.118,0.075,south,4.9,No
2023/10/18,17:20,0.146,0.131,0.214,0.204,0.210,0.118,0.076,south,4.1,No
2023/10/18,17:30,0.147,0.131,0.213,0.202,0.208,0.119,0.076,south,4.3,No
2023/10/18,17:40,0.146,0.132,0.213,0.203,0.210,0.118,0.075,south,4.3,No
2023/10/18,17:50,0.147,0.132,0.214,0.202,0.206,0.120,0.076,south-southwest,4.4,No
2023/10/18,18:00,0.145,0.133,0.214,0.203,0.210,0.119,0.076,south-southwest,3.1,No
2023/10/18,18:10,0.147,0.134,0.214,0.203,0.207,0.119,0.076,south,3.3,No
2023/10/18,18:20,0.146,0.134,0.212,0.202,0.210,0.118,0.075,south,3.7,No
2023/10/18,18:30,0.147,0.133,0.213,0.202,0.208,0.119,0.076,south-southwest,3.8,No
2023/10/18,18:40,0.145,0.132,0.214,0.204,0.208,0.118,0.076,south-southwest,4.0,No
2023/10/18,18:50,0.146,0.132,0.214,0.202,0.208,0.119,0.076,south-southwest,2.7,No
2023/10/18,19:00,0.146,0.132,0.213,0.204,0.209,0.119,0.075,south-southwest,3.2,No
2023/10/18,19:10,0.148,0.132,0.213,0.202,0.208,0.120,0.076,south-southwest,3.5,No
2023/10/18,19:20,0.146,0.132,0.214,0.204,0.211,0.120,0.075,south-southwest,4.3,No
2023/10/18,19:30,0.146,0.132,0.214,0.203,0.207,0.119,0.075,south-southwest,4.5,No
2023/10/18,19:40,0.147,0.132,0.213,0.203,0.210,0.117,0.076,south-southwest,4.6,No
2023/10/18,19:50,0.146,0.132,0.214,0.203,0.208,0.119,0.076,south-southwest,4.0,No
2023/10/18,20:00,0.146,0.132,0.213,0.201,0.209,0.118,0.076,south-southwest,4.1,No
2023/10/18,20:10,0.147,0.132,0.214,0.203,0.208,0.119,0.075,south-southwest,4.3,No
2023/10/18,20:20,0.146,0.132,0.212,0.203,0.209,0.119,0.076,south-southwest,4.3,No
2023/10/18,20:30,0.147,0.133,0.214,0.202,0.208,0.119,0.076,south-southwest,5.5,No
2023/10/18,20:40,0.148,0.133,0.213,0.203,0.210,0.119,0.076,south-southwest,4.9,No
2023/10/18,20:50,0.145,0.132,0.214,0.204,0.208,0.118,0.076,south,5.0,No
2023/10/18,21:00,0.147,0.132,0.213,0.202,0.209,0.119,0.076,south-southwest,4.8,No
2023/10/18,21:10,0.147,0.132,0.214,0.203,0.208,0.119,0.076,south,3.8,No
2023/10/18,21:20,0.148,0.132,0.215,0.201,0.208,0.118,0.075,south-southwest,3.6,No
2023/10/18,21:30,0.146,0.132,0.213,0.202,0.208,0.118,0.076,south-southwest,3.4,No
2023/10/18,21:40,0.148,0.133,0.214,0.203,0.210,0.118,0.076,south-southwest,3.5,No
2023/10/18,21:50,0.146,0.132,0.213,0.203,0.208,0.119,0.076,south-southwest,3.9,No
2023/10/18,22:00,0.147,0.133,0.213,0.202,0.210,0.119,0.076,south-southwest,3.6,No
2023/10/18,22:10,0.147,0.133,0.215,0.201,0.207,0.119,0.076,south-southwest,3.3,No
2023/10/18,22:20,0.147,0.132,0.213,0.203,0.210,0.119,0.076,south-southwest,3.0,No
2023/10/18,22:30,0.147,0.133,0.214,0.201,0.208,0.118,0.076,south,2.2,No
2023/10/18,22:40,0.147,0.132,0.213,0.203,0.210,0.120,0.076,south-southwest,3.0,No
2023/10/18,22:50,0.148,0.134,0.214,0.203,0.207,0.119,0.075,southwest,3.4,No
2023/10/18,23:00,0.147,0.132,0.214,0.203,0.209,0.119,0.076,west-southwest,3.4,No
2023/10/18,23:10,0.147,0.132,0.212,0.203,0.208,0.119,0.076,west-southwest,4.1,No
2023/10/18,23:20,0.147,0.133,0.214,0.202,0.209,0.119,0.077,west-southwest,3.1,No
2023/10/18,23:30,0.148,0.132,0.214,0.202,0.207,0.119,0.076,west-southwest,4.8,No
2023/10/18,23:40,0.146,0.133,0.213,0.203,0.209,0.118,0.077,southwest,4.9,No
2023/10/18,23:50,0.147,0.132,0.214,0.202,0.208,0.119,0.076,southwest,4.2,No
